Regional Weather Roundup
Issued by NWS Grand Forks, ND

Home | Current Version | Previous Version | Text Only | Print | Product List | Glossary Off
Versions: 1 2 3 4 5 6 7 8 9 10 11 12 13 14 15 16 17 18 19 20 21 22 23 24 25 26 27 28 29 30 31 32 33 34 35 36 37 38 39 40 41 42 43 44 45 46 47 48 49 50

000
ASUS43 KFGF 290331
RWRFGF
PRAIRIE TO PINES  WEATHER ROUNDUP
NATIONAL WEATHER SERVICE EASTERN NORTH DAKOTA/GRAND FORKS ND
1000 PM CDT SAT MAY 28 2016

 **SATELLITE DATA USED TO AUGMENT SKY COVER AT AUTOMATED STATIONS**
 *****  WEATHER ACROSS EASTERN NORTH DAKOTA  *****

CITY           SKY/WX    TMP DP  RH WIND       PRES   REMARKS
GRAND FORKS    LGT RAIN  61  60  97 NW6       29.86R
GRAND FRKS AFB NOT AVBL
GRAND FRKS NWS   N/A     59 N/A N/A N2          N/A
DEVILS LAKE    CLOUDY    61  57  88 NE7       29.91S
FARGO          CLOUDY    62  59  90 N6        29.85R
WAHPETON ARPT  CLOUDY    61  55  82 N3        29.86R
$$

 ***** WEATHER ACROSS CENTRAL AND WESTERN NORTH DAKOTA  *****

CITY           SKY/WX    TMP DP  RH WIND       PRES   REMARKS
BISMARCK       PTCLDY    58  56  93 SW3       29.92R
MINOT          MOCLDY    61  54  77 N7        29.91R
JAMESTOWN      CLOUDY    63  56  78 N3        29.87R
MINOT AFB      NOT AVBL
GARRISON         N/A     58  56  93 W5        29.92R
WILLISTON      CLEAR     57  53  86 CALM      29.94R
DICKINSON      CLEAR     55  51  86 NW5       29.96R
HETTINGER      PTCLDY    55  50  83 N6        29.98R
$$

 *****  OTHER AIRPORT OBSERVATIONS IN OUR AREA  *****

CITY           SKY/WX    TMP DP  RH WIND       PRES   REMARKS
WALHALLA       FAIR      59  59 100 N12       29.91R
GRAFTON AIRPOR DRIZZLE   61  61 100 CALM      29.90R
VALLEY CITY AR MOCLDY    61  61 100 CALM      29.90R
CANDO          MOCLDY    55  55 100 NE7       29.95R
CAVALIER APRT  CLOUDY    63  59  88 N8        29.89R
GWINNER        MOCLDY    61  59  94 NW3       29.88R
ROLLA          FOG       55  55 100 N10       29.95R VSB 1/4
 ***** THE ABOVE OBSERVATIONS ARE NON NWS ARE NOT QUALITY
       CONTROLLED AND MAY MIS-REPORT RAIN FOR SNOW...
$$

  *****  WEATHER ACROSS NORTHERN MINNESOTA  *****

CITY           SKY/WX    TMP DP  RH WIND       PRES   REMARKS
FLAG ISLAND    CLOUDY    55  54  94 NE8       29.85S
WARROAD        RAIN      57  54  88 N7        29.87R
ROSEAU         LGT RAIN  57  52  82 N6        29.87R
HALLOCK        CLOUDY    61  57  88 E5        29.87R
THF RVR FALLS  CLOUDY    57  55  94 N8        29.87R
BAUDETTE       CLOUDY    56  54  93 N7        29.84R
WASKISH        CLOUDY    57  55  94 N5        29.83R
CROOKSTON      DRIZZLE   59  57  94 NE5       29.87R
GREENBUSH NDAW   N/A     57  57 100 NE6         N/A
$$
  *****  WEATHER ACROSS CENTRAL AND WEST MINNESOTA  *****

CITY           SKY/WX    TMP DP  RH WIND       PRES   REMARKS
FOSSTON        DRIZZLE   57  55  94 N7        29.85R
BEMIDJI        LGT RAIN  57  57  98 CALM      29.82R
PARK RAPIDS    CLOUDY    60  58  92 CALM      29.83R FOG
ELBOW LAKE     DRIZZLE   59  58  96 W8        29.86R
WADENA         CLOUDY    57  57 100 CALM      29.83S
DETROIT LAKES  RAIN      59  57  94 NW6       29.86R
MOORHEAD       DRIZZLE   61  59  94 N9        29.86R
FERGUS FALLS   DRIZZLE   61  61 100 NW7       29.83R
MORRIS MN      DRIZZLE   61  59  94 W3        29.85R
STAPLES        CLOUDY    57  57 100 NW7       29.83R
$$
  *****  WEATHER ELSEWHERE ACROSS MINNESOTA  *****

CITY           SKY/WX    TMP DP  RH WIND       PRES   REMARKS
DULUTH         CLOUDY    55  54  96 N6        29.80S FOG
INTRNTL FALLS  LGT RAIN  57  56  96 N8        29.82R FOG
ELY            DRIZZLE   59  57  94 CALM      29.81R
CLOQUET        LGT RAIN  54  52  94 CALM      29.80F
WHEATON        CLOUDY    64  59  82 NW6       29.88R
BRAINERD       CLOUDY    59  59 100 W6        29.82S
HIBBING        CLOUDY    57  57 100 CALM      29.80S FOG
ALEXANDRIA     CLOUDY    60  57  89 CALM      29.85R
SAINT CLOUD    CLOUDY    61  59  93 NW3       29.81S
MINNEAPOLIS    CLOUDY    64  60  87 NW3       29.80R
$$

  *****  WEATHER ACROSS SOUTH DAKOTA  *****

CITY           SKY/WX    TMP DP  RH WIND       PRES   REMARKS
SIOUX FALLS    CLOUDY    61  58  90 W6        29.90R
BROOKINGS      NOT AVBL
WATERTOWN      MOCLDY    62  58  86 W7        29.89R
HURON          PTCLDY    59  58  96 CALM      29.90R
SISSETON         N/A     62  57  83 NW9       29.85R
ABERDEEN       PTCLDY    60  57  89 SW7       29.89R
MITCHELL       PTCLDY    62  60  93 W5        29.92R
PIERRE         PTCLDY    60  54  80 N3        29.92R
MOBRIDGE       MOCLDY    60  55  83 CALM      29.91R
RAPID CITY     MOCLDY    58  49  72 NW10      29.99R
$$

  *****  SOME WEATHER IN NEARBY STATES *****

CITY           SKY/WX    TMP DP  RH WIND       PRES   REMARKS
GLASGOW MT     CLEAR     58  39  49 W6        29.94R
GREAT FALLS MT PTCLDY    51  31  46 W9        30.01R
CHEYENNE WY    CLOUDY    57  39  51 SW13      30.11R
SCOTTSBLUFF NE PTCLDY    58  47  66 NE8       30.04R
OMAHA NE       PTCLDY    67  56  67 W9        29.93R
DES MOINES IA  PTCLDY    68  56  65 SW10      29.87R
DAVENPORT IA   CLOUDY    70  59  68 SW12      29.90R
CHICAGO IL     CLOUDY    71  59  65 W16       29.95R
EAU CLAIRE WI  CLOUDY    63  61  93 S5        29.78R
LA CROSSE WI   CLOUDY    65  62  90 S3        29.81R
$$

  *****  SOME NATIONAL WEATHER *****

CITY           SKY/WX    TMP DP  RH WIND       PRES   REMARKS
LA GUARDIA NY  PTCLDY    82  68  62 SW13      30.11R
RALEIGH NC     CLOUDY    74  65  73 CALM      30.14S
ATLANTA GA     CLOUDY    76  55  48 SE3       30.12R
NEW ORLEANS LA PTCLDY    74  70  87 CALM      30.06S
OKLAHOMA CITY  CLEAR     70  65  84 SE7       30.01R
ALBUQUERQUE NM PTCLDY    74  19  12 SE3       30.05R
SALT LAKE CITY MOCLDY    69  39  33 N6        30.03R
LOS ANGELES CA CLOUDY    60  53  77 SW12      29.93R
BOISE ID       CLEAR     67  29  24 NW7       30.00R
SEATTLE WA     CLOUDY    55  53  93 S9        30.04F
$$

*** WEATHER ACROSS MANITOBA...SASKATCHEWAN AND ONTARIO ***
                ***ONTARIO***

CITY           SKY/WX    TMP DP  RH WIND       PRES   REMARKS
GERALDTON      LGT RAIN  57  55  94 NE12      29.87F VSB 3/4
THUNDER BAY    FOG       57  55  94 S5        29.81S VSB 1
SIOUX LOOKOUT  DRIZZLE   52  52 100 VRB7      29.89S FOG
TORONTO        PTCLDY    72  61  68 SE8       30.04F
BIG TROUT LK   PTCLDY    52  45  76 NE6       30.11F
PICKLE LAKE    NOT AVBL
DRYDEN         CLOUDY    54  52  94 NE14G20   29.87S FOG
KENORA         DRIZZLE   54  54 100 NE8       29.88S FOG
$$
                *** MANITOBA***

CITY           SKY/WX    TMP DP  RH WIND       PRES   REMARKS
BRANDON        CLOUDY    52  52 100 NE10      29.95F
DAUPHIN        LGT RAIN  52  50  93 NE5       29.98S FOG
ISLAND LAKE    MOCLDY    48  45  87 E7        30.06S
PILOT MOUND      N/A     55  54  94 N10         N/A
THE PAS        CLOUDY    52  43  71 SE8       30.03S
THOMPSON       MOCLDY    48  39  71 VRB2      30.10S
WINNIPEG       MOCLDY    57  55  94 N9        29.91R
LYNN LAKE      CLEAR     50  39  66 E6        30.07R
CHURCHILL      CLEAR     36  30  80 E10       30.27R
$$
                ***SASKATCHEWAN***

CITY           SKY/WX    TMP DP  RH WIND       PRES   REMARKS
ESTEVAN        MOCLDY    57  54  88 S3        29.92S
KINDERSLEY     MOCLDY    55  48  76 E3        29.87R
LLOYDMINSTER   MOCLDY    50  46  87 N6        29.86R
PRINCE ALBERT  PTCLDY    54  46  76 E15G23    29.90S
REGINA         PTCLDY    52  52 100 SW5       29.91R
YORKTON        CLOUDY    52  48  87 SE12      29.95R
N. BATTLEFORD  CLOUDY    52  52 100 NE7       29.87S
LA RONGE       CLOUDY    50  45  81 SE6       29.98S
SASKATOON      MOCLDY    54  54 100 SW2       29.87S
SWIFT CURRENT  MOCLDY    52  48  87 SW6       29.90R
$$
NOTE: THESE ARE AUTOMATED STATIONS WITH LIMITED QUALITY CONTROL
      "FAIR" INDICATES FEW OR NO CLOUDS BELOW 12,000 FEET WITH NO
      SIGNIFICANT WEATHER AND/OR OBSTRUCTIONS TO VISIBILITY.
      SKY/WX - SKY CONDITION AND SIGNIFICANT WEATHER.
      TMP - AIR TEMPERATURE.    DP   - DEWPOINT TEMPERATURE.
      RH  - RELATIVE HUMIDITY.  PRES - PRESSURE.
      HX  - HEAT INDEX.         WCI  - WIND CHILL INDEX.
$




USA.gov is the U.S. government's official web portal to all federal, state and local government web resources and services.